Search flights

Ibiza Airport, Ibiza (LEIB)

Meteorología aeropuerto y NOTAMs

METAR for:LEIB (Ibiza Arpt, IB, ES)
Text:LEIB 260900Z 09004KT 040V160 9999 SCT014 22/17 Q1018 NOSIG
Conditions at:0900 UTC 26 May 2024
Temperature: 22.0°C ( 72°F)
Dewpoint: 17.0°C ( 63°F) [RH = 73%]
Pressure (altimeter):30.06 inches Hg (1018.0 mb)
Winds:from the E (90 degrees) at 5 MPH (4 knots; 2.1 m/s)
Visibility:6 or more sm (10+ km)
Ceiling:at least 12,000 feet AGL
Clouds:scattered clouds at 1400 feet AGL
TAF for:LEIB (Ibiza Arpt, IB, ES) issued at 0800 UTC 26 May 2024
Text:TAF LEIB 260800Z 2609/2709 11005KT 9999 FEW010 TX26/2612Z TN17/2705Z
Forecast period:0900 UTC 26 May 2024 to 0900 UTC 27 May 2024
Forecast type:FROM: standard forecast or significant change
Winds:from the ESE (110 degrees) at 6 MPH (5 knots; 2.6 m/s)
Visibility:6 or more sm (10+ km)
Ceiling:at least 12,000 feet AGL
Clouds:few clouds at 1000 feet AGL
Temperature:MAX 26°C at 1200 UTC 26 May 2024
Temperature:MIN 17°C at 0500 UTC 27 May 2024
Text:PROB30
Forecast period:0100 to 0300 UTC 27 May 2024
Forecast type:TEMPORARY: The following changes expected for less than half the time period
Winds:from the NE (40 degrees) at 12 MPH (10 knots; 5.1 m/s)

Salidas y llegadas actuales

En este momento no hay salidas ni llegadas a este aeropuerto

Historial de salidas (últimos 12 meses)

Nº vuelo. Destino Aeronave Fecha
FNX209 LEAM CRJ-200 v.... 2024-05-22 10:05:00
FNX310 LEBL FenixA320... 2024-05-21 22:22:11
FNX209 SVMI Boeing B73... 2024-05-21 01:24:54
FNXIE20 LEBB PMDG 737-8... 2024-05-20 10:51:32
FNXPARTN10 LEMD PMDG 737-8... 2024-05-19 06:23:05
FNX209 EGAC B737-800X... 2024-05-17 15:12:44
FNX209 EIDW 737NG Seri... 2024-05-15 06:22:33
FNX209 LEBL B737-800X... 2024-05-11 20:16:11
FNX209 ENTC 737NG Seri... 2024-05-07 04:36:04
FNX213 LEBL Fenix A320... 2024-05-02 11:46:46
FNX209 LEBL Aerosoft A... 2024-05-02 04:28:16
FNX209 LEVC Carenado A... 2024-05-01 20:39:38
FNXIE20 LEBB PMDG 737-8... 2024-04-23 21:42:41
FNX209 KBOS Boeing B73... 2024-04-17 07:09:10
FNXPARTN10 LEMD CRJ700 Fen... 2024-04-12 17:12:35
FNX209 LEPA Dornier DO... 2024-03-31 07:49:20
FNX307 LOWI Fenix A320... 2024-03-29 09:02:26
FNX209 LEPA CRJ-200 v.... 2024-03-19 22:20:13
FNXTVE16 LEAL Blackwing... 2024-03-18 15:01:38
FNX302 GCTS PMDG 737-8... 2024-03-18 09:02:38
FNX4007 LEMD BOEING 738... 2024-03-17 17:45:00
FNX209 LEVC 737NG Seri... 2024-03-17 17:00:24
FNX310 LEZL FenixA320... 2024-03-16 23:56:34
FNX209 LPMA Super 80 W... 2024-03-16 17:44:45
FNX209 LEZL 737NG Seri... 2024-03-16 23:49:24
FNX209 LEVC Boeing 737... 2024-03-13 22:48:41
FNX205 LEZL PMDG 737-8... 2024-03-11 19:46:45
FNX216 LEZL Fenix A320... 2024-03-10 17:38:54
FNXPARTN10 LEMD PMDG 737-8... 2024-03-09 22:56:10
FNX209 LEPA CRJ-200 v.... 2024-03-09 17:31:02
FNX101 LESU C510 2024-03-09 11:11:17
FNX102 LEZL PMDG 737-8... 2024-03-07 18:37:30
FNX211 LPPT PMDG 737-8... 2024-03-06 20:19:52
FNX408 LEVC ProSimA322... 2024-03-03 18:44:42
FNX209 LEMD Airbus A32... 2024-03-03 19:11:24
FNX307 LEBL FenixA320... 2024-03-02 19:42:46
FNX101 LEXJ PMDG 737-8... 2024-03-02 11:24:00
FNX209 LEJR B737-800X... 2024-02-29 05:52:22
FNX307 LEBL FenixA320... 2024-02-28 16:02:27
FNX209 LEAM B737-800X... 2024-02-28 07:48:49
FNX310 LEZG FenixA320... 2024-02-27 23:06:00
FNX209 LEMD B737-800X... 2024-02-27 05:03:09
FNX205 LEMD PMDG 737-8... 2024-02-26 19:56:23
FNX211 LEXJ PMDG 737-8... 2024-02-24 06:54:07
FNX209 LEVC B737-800X... 2024-02-24 19:08:23
FNX209 LEVC B737-800X... 2024-02-24 23:31:04
FNX406 LEAL Cessna Sky... 2024-02-23 08:19:57
FNX209 LEBL B737-800X... 2024-02-19 10:52:34
FNX205 EGGP PMDG 737-8... 2024-02-14 21:04:51
FNX211 LIBD PMDG 737-8... 2024-02-11 11:16:07
FNXTM21 LEMG PMDG 737-8... 2024-02-09 09:51:51
FNX302 LCLK PMDG 737-8... 2024-02-06 17:28:59
FNX211 LEZL PMDG 737-8... 2024-01-27 14:23:44
FNX400 LEAM FenixA320... 2024-01-24 23:58:26
FNXPARTN10 LEMD PMDG 737-8... 2024-01-23 09:22:21
FNX207 LEMG PMDG 737-8... 2024-01-23 08:50:53
FNX102 LECO PMDG 737-8... 2024-01-23 23:02:03
FNX207 LEMD PMDG 737-8... 2024-01-16 08:08:22
FNX101 LEMH PMDG 737-8... 2024-01-16 21:07:48
FNX101 LEVC SR 22 Kenm... 2024-01-14 10:59:03
FNX202 LEBB FenixA320... 2024-01-10 19:23:39
FNX302 LPPR FenixA320... 2024-01-08 16:17:03
FNX403 LEMH PMDG 737-8... 2024-01-03 16:11:24
FNX302 LOWI PMDG 737-8... 2024-01-01 12:31:01
FNX211 LEJR PMDG 737-8... 2024-01-01 12:35:29
FNX302 LESO PMDG 737-8... 2023-12-30 17:46:04
FNX211 LESO PMDG 737-8... 2023-12-30 17:23:32
FNX211 LIEO PMDG 737-8... 2023-12-30 10:15:19
FNX207 LESO PMDG 737-8... 2023-12-30 17:42:34
FNX211 LDSP PMDG 737-8... 2023-12-26 13:27:31
FNX403 LEVC PMDG 737-8... 2023-12-20 10:00:21
FNX207 LEVC PMDG 737-8... 2023-12-20 10:47:18
FNX302 LXGB PMDG 737-8... 2023-12-19 19:08:19
FNX107 LXGB PMDG 737-8... 2023-12-19 19:33:46
FNX302 LSZH PMDG 737-8... 2023-12-13 09:46:10
FNX102 LEVC PMDG 737-8... 2023-12-13 10:38:00
FNX107 LICJ PMDG 737-8... 2023-10-15 11:09:44
FNX107 EGGP PMDG 737-8... 2023-09-30 15:49:04
FNX102 EGGP Fenix Airl... 2023-09-30 16:02:20
FNXTM21 LEMG PMDG 737-8... 2023-08-26 05:59:11
FNX207 LEPA Cessna Sky... 2023-07-14 07:09:25
FNX101 LEPA ATR 72-600... 2023-06-07 16:15:56

Historial de llegadas (últimos 12 meses)

Nº vuelo. Origen Aeronave Fecha
FNX215 LEBL PMDG 737-7... 2024-05-22 20:07:58
FNX209 LEBL Boeing B73... 2024-05-22 00:05:44
FNXIE19 LEBG PMDG 737-8... 2024-05-19 19:31:50
FNX310 LEVC FenixA320... 2024-05-18 23:26:34
FNX209 EGAC B737-800X... 2024-05-18 09:21:15
FNXPARTN09 LEZL PMDG 737-8... 2024-05-17 18:23:18
FNX209 EIDW 737NG Seri... 2024-05-16 19:26:16
FNX310 LEMG FenixA320... 2024-05-15 21:57:02
FNX209 LEBL B737-800X... 2024-05-14 14:54:18
FNX213 LEMD Fenix A320... 2024-04-30 22:43:03
FNX209 ENTC 737NG Seri... 2024-04-30 10:40:43
FNX209 GCLP Aerosoft A... 2024-04-27 21:10:36
FNX307 LEST Fenix A320... 2024-04-21 17:01:51
FNXIE19 LEBG PMDG 737-8... 2024-04-18 09:32:15
FNX209 OTHH 737NG Seri... 2024-04-14 07:28:28
FNXPARTN09 LEZL Black Squa... 2024-04-11 11:49:39
FNX307 LEBL FenixA320... 2024-03-26 15:15:09
FNX209 LEMD B737-800X... 2024-03-25 20:29:34
FNX211 LEVX PMDG 737-8... 2024-03-23 09:51:25
FNX209 SVMI ToLissA346... 2024-03-23 11:42:19
FNX409 LEBB ToLissA320... 2024-03-19 19:36:56
FNX209 LEBB 737NG Seri... 2024-03-19 19:39:29
FNXTVE15 LECH Blackwing... 2024-03-17 11:22:32
FNX209 LEVC 737NG Seri... 2024-03-17 13:28:01
FNX101 DAAE PMDG 737-8... 2024-03-17 12:50:03
FNX209 LESU Carenado S... 2024-03-16 16:48:54
FNX310 LEBL FenixA320... 2024-03-15 23:48:29
FNX209 LEAS Embraer E1... 2024-03-15 22:38:24
FNX302 EGSS PMDG 737-8... 2024-03-14 15:09:49
FNX209 EGLL B737-800X... 2024-03-13 21:32:28
FNX209 LEMH CRJ-200 v.... 2024-03-09 17:18:50
FNXPARTN09 LEZL PMDG 737-8... 2024-03-08 19:21:50
FNXPARTN09 LEZL PMDG 737-8... 2024-03-05 12:04:16
FNX211 LGKR PMDG 737-8... 2024-03-05 21:32:37
FNX209 LEBL Beechcraft... 2024-03-04 09:22:34
FNX307 LEBL FenixA320... 2024-02-29 18:10:49
FNX209 EIDW Tolis a321... 2024-02-28 21:47:23
FNX408 LEPA ProSimA322... 2024-02-27 20:54:18
FNX307 LEBB FenixA320... 2024-02-27 16:47:37
FNX209 LEMD B737-800X... 2024-02-27 16:20:39
FNX209 LEVC B737-800X... 2024-02-26 23:01:46
FNX205 LEZL PMDG 737-8... 2024-02-26 16:41:32
FNX310 LEBL FenixA320... 2024-02-25 23:11:11
FNX209 LEVC B737-800X... 2024-02-24 08:55:37
FNX211 LECO PMDG 737-8... 2024-02-23 07:54:32
FNX209 LPLA B737-800X... 2024-02-23 11:18:07
FNX209 LEBL B737-800X... 2024-02-19 17:32:03
FNX205 LEAM PMDG 737-8... 2024-02-13 19:17:12
FNXTM20 LFMT PMDG 737-8... 2024-02-08 20:26:09
FNX406 LEPA Cessna 152... 2024-02-08 09:50:16
FNX302 LEAM PMDG 737-8... 2024-02-06 17:09:45
FNXPARTN09 LEZL PMDG 737-8... 2024-01-21 13:39:18
FNX211 LEBB PMDG 737-8... 2024-01-21 20:37:18
FNX207 LEBB PMDG 737-8... 2024-01-21 20:46:26
FNX102 LEBB PMDG 737-8... 2024-01-21 20:46:55
FNX207 LEMH Cessna Sky... 2024-01-15 10:11:33
FNX302 LEMG PMDG 737-8... 2024-01-08 10:07:36
FNX403 LEVC PMDG 737-8... 2024-01-03 15:33:51
FNX202 LXGB FenixA320... 2024-01-03 15:27:01
FNX211 LEJR PMDG 737-8... 2024-01-01 16:43:47
FNX211 EFRO PMDG 737-8... 2024-01-01 11:45:20
FNX302 LPPR PMDG 737-8... 2023-12-30 17:21:45
FNX211 LIRN PMDG 737-8... 2023-12-30 09:53:56
FNX107 LIEO PMDG 737-8... 2023-12-30 15:41:05
FNX207 LEAL PMDG 737-8... 2023-12-20 10:21:46
FNX403 LEVC PMDG 737-8... 2023-12-19 11:29:17
FNX302 EIDW B737-800 2023-12-12 18:40:00
FNX102 LEMG PMDG 737-8... 2023-12-11 13:24:43
FNX302 LEZL PMDG 737-8... 2023-12-10 15:49:30
FNX107 LICJ PMDG 737-8... 2023-10-15 15:16:50
FNX107 LXGB PMDG 737-8... 2023-10-15 10:38:30
FNX102 EGNX B737-800X... 2023-09-27 22:58:44
FNXTM20 LFMT PMDG 737-8... 2023-08-13 07:16:04
FNX207 LEAL PMDG 737-8... 2023-06-29 20:53:31

Información de pista (Elevación del aeropuerto: 18ft)

Pista 06 Longitud 9,180ft Anchura 145ft Elevación 18ft Superficie Bituminous Rumbo 62
Pista 24 Longitud 9,180ft Anchura 145ft Elevación 18ft Superficie Bituminous Rumbo 242

Frecuencias del aeropuerto

Tipo APP/DEP Frecuencia 134.825 Mhz
Tipo ATIS Frecuencia 119.805 Mhz
Tipo Clearance Frecuencia 121.380 Mhz
Tipo Ground Frecuencia 121.930 Mhz
Tipo Tower Frecuencia 118.505 Mhz
Tipo ATIS Frecuencia 119.800 Mhz
Tipo Clearance Frecuencia 121.375 Mhz
Tipo Ground Frecuencia 121.925 Mhz
Tipo Tower Frecuencia 118.500 Mhz

Radioayudas del aeropuerto

Tipo VOR-DME Identif. IBA Frecuencia 117800 Khz
Tipo NDB Identif. IZA Frecuencia 394 Khz